Flag for Canada Weather past 2 weeks in Pond Inlet, Nunavut Territory, Canada

Now
0 °F

Mostly cloudy.


Feels Like: -14 °F
Forecast: -9 / 7 °F
Wind: 7 mph from Southeast

Location: Pond Inlet


UV Index: 0 (Low)

Visibility: 6 mi


Pressure: 30.17 "Hg

Humidity: 78%

Dew point: -6 °F

Location of Pond InletLocation

Historic Weather in Pond Inlet

°F

Pond Inlet temperature yesterday

Maximum temperature yesterday: 3 °F (at 1:00 PM)
Minimum temperature yesterday: -2 °F (at 12:00 AM)
Average temperature yesterday: 1 °F

Past Weeks' High & Low Weather Summary

 TemperatureHumidityPressure
High12 °F (Apr 10, 3:00 PM)92% (Apr 20, 11:00 PM)30.16 "Hg (Apr 20, 11:00 PM)
Low-15 °F (Apr 9, 8:00 AM)40% (Apr 10, 6:00 PM)29.37 "Hg (Apr 17, 3:00 PM)
Average0 °F74%29.85 "Hg
* Reported Apr 9 8:00 AM — Apr 24 8:04 AM, Pond Inlet, Weather by CustomWeather, © 2014

Note: Actual official high and low records may vary slightly from our data, if they occured in-between our weather recording intervals... More about our weather records

Advertising

Historic Weather Conditions — Data for Previous 24 hours

 ConditionsComfort  
Time TempWeatherWind HumidityBarometerVisibility
8:04 AM
Apr 24
-2 °FMostly cloudy.9 mph77%30.16 "Hg5 mi
7:00 AM-6 °FSunny.12 mph77%30.15 "Hg9 mi
6:01 AM-6 °FScattered clouds.12 mph77%30.14 "Hg9 mi
5:59 AM-6 °FLight snow. Scattered clouds.12 mph77%30.14 "Hg9 mi
5:00 AM-6 °FPartly sunny.12 mph77%30.14 "Hg9 mi
4:00 AM-6 °FLight snow. Mostly cloudy.9 mph84%30.14 "Hg9 mi
3:00 AM-6 °FLight snow. Partly sunny.9 mph84%30.13 "Hg8 mi
2:50 AM-4 °FLight snow. Mostly cloudy.8 mph77%30.13 "Hg6 mi
2:00 AM-2 °FLight snow. Overcast.7 mph77%30.12 "Hg2 mi
1:58 AM-2 °FLight snow. Overcast.7 mph77%30.12 "Hg2 mi
1:00 AM-4 °FLight snow. Mostly cloudy.9 mph84%30.11 "Hg6 mi
12:04 AM-4 °FMostly cloudy.9 mph84%30.10 "Hg9 mi
11:00 PM
Apr 23
-2 °FLight snow. Overcast.6 mph84%30.09 "Hg3 mi
10:00 PM0 °FLight snow. Passing clouds.7 mph84%30.08 "Hg6 mi
9:57 PM0 °FLight snow. Passing clouds.6 mph84%30.08 "Hg4 mi
9:03 PM1 °FLight snow. Overcast.5 mph85%30.07 "Hg2 mi
8:58 PM1 °FLight snow. Overcast.3 mph85%30.07 "Hg2 mi
8:00 PM3 °FLight snow. Overcast.6 mph85%30.06 "Hg4 mi
7:01 PM3 °FLight snow. Overcast.6 mph85%30.06 "Hg2 mi
6:04 PM3 °FLight snow. Overcast.5 mph85%30.04 "Hg2 mi
5:56 PM3 °FLight snow. Overcast.5 mph85%30.04 "Hg2 mi
5:00 PM3 °FLight snow. Broken clouds.3 mph78%30.03 "Hg10 mi
4:00 PM3 °FBroken clouds.5 mph78%30.03 "Hg15 mi
3:00 PM3 °FLight snow. Broken clouds.6 mph78%30.03 "Hg8 mi
2:00 PM3 °FLight snow. Broken clouds.6 mph72%30.02 "Hg13 mi
1:58 PM1 °FLight snow. Broken clouds.6 mph78%30.02 "Hg13 mi
1:00 PM3 °FBroken clouds.6 mph72%30.01 "Hg25 mi
12:00 PM1 °FScattered clouds.6 mph78%30.02 "Hg40 mi
11:00 AM1 °FBroken clouds.3 mph78%30.03 "Hg40 mi
10:00 AM1 °FPartly sunny.2 mph71%30.03 "Hg9 mi
9:56 AM1 °FPartly sunny.2 mph71%30.03 "Hg9 mi
9:00 AM0 °FPartly sunny.7 mph78%30.03 "Hg9 mi
Weather by CustomWeather, © 2014

See weather overview